[[{"header":{"parameterUnit":"m.s-1","parameterCategory":1,"la1":30.2991,"la2":30.254,"lo1":-89.0895,"lo2":-89.0444,"dy":0.0017,"dx":0.0017,"nx":28,"ny":28,"refTime":"2025-01-28T09:00:00:Z","depth":0,"parameterNumber":2,"parameterNumberName":"U-component_of_WINDS"},"data":[0,0,0,0,0,0,0,0,0,0,0,0,0,0,0,0,0,0,0,0,0,0,0,0,0,0,0,0,0,0,0,0,0,0,0,0,0,0,0,0,0,0,0,0,0,0,0,0,0,0,0,0,0,0,0,0,0,0,-0.6971,-0.6972,0,-0.7003,-0.7004,-0.7004,-0.7007,-0.7007,-0.7007,-0.7006,-0.7041,-0.7042,-0.7043,0,0,0,0,0,0,0,0,0,0,0,0,0,-0.6915,-0.6916,-0.6971,-0.6972,-0.6972,-0.7003,-0.7004,-0.7004,-0.7007,-0.7007,-0.7007,-0.7006,-0.704,-0.7042,-0.7043,0,0,0,0,0,0,0,0,0,0,0,0,0,-0.6942,-0.6916,-0.6971,-0.6977,-0.6978,-0.7003,-0.7004,-0.7004,-0.7007,-0.7007,-0.7007,-0.7006,-0.704,-0.7041,-0.7043,-0.7064,0,0,-0.7049,-0.705,0,0,0,0,0,0,0,0,-0.6941,-0.6944,-0.6976,-0.6977,-0.6978,-0.7001,-0.6996,-0.7024,-0.7008,-0.6996,-0.7006,-0.7006,-0.7028,-0.7031,-0.7038,-0.7066,-0.7067,-0.7049,-0.705,-0.7051,-0.7051,0,0,0,0,0,0,0,-0.6939,-0.6943,-0.6984,-0.6977,-0.6978,-0.6979,-0.6983,-0.7002,-0.7015,-0.6997,-0.6998,-0.7001,-0.7028,-0.7036,-0.7039,-0.7068,-0.7049,-0.7051,-0.7052,-0.7052,-0.7116,-0.7116,0,0,0,0,0,0,-0.6936,-0.6941,-0.6983,-0.6985,-0.6958,-0.6981,-0.6984,-0.6994,-0.7014,-0.7017,-0.7002,-0.7001,-0.7033,-0.7036,-0.704,-0.7066,-0.7051,-0.7053,-0.7054,-0.7115,-0.7116,-0.7117,0,0,0,0,0,0,-0.6934,-0.6939,-0.6982,-0.6963,-0.6969,-0.6982,-0.6993,-0.6995,-0.7003,-0.7018,-0.702,-0.7007,-0.7033,-0.7037,-0.7058,-0.7068,-0.7053,-0.7055,-0.7115,-0.7116,-0.7116,-0.7119,0,0,0,0,0,0,-0.6933,-0.6939,-0.6946,-0.6963,-0.697,-0.6999,-0.6993,-0.6996,-0.7006,-0.7005,-0.7023,-0.7026,-0.7033,-0.7056,-0.706,-0.707,-0.7056,-0.7114,-0.7115,-0.7116,-0.7119,-0.712,-0.7122,0,0,0,0,0,-0.6931,-0.6946,-0.6947,-0.6952,-0.698,-0.7,-0.7003,-0.7011,-0.7006,-0.7014,-0.7024,-0.7025,-0.7066,-0.7058,-0.7063,-0.7073,-0.7113,-0.7115,-0.7116,-0.7118,-0.712,-0.7122,0,0,0,0,0,0,-0.693,-0.6948,-0.6949,-0.6971,-0.6984,-0.7,-0.7011,-0.7012,-0.7027,-0.7026,-0.7035,-0.7039,-0.706,-0.7069,-0.706,-0.7095,-0.7089,-0.7092,-0.7089,-0.7091,-0.7093,-0.709,-0.7058,0,0,0,0,0,-0.6933,-0.6947,-0.6962,-0.698,-0.6986,-0.6997,-0.7006,-0.7011,-0.7025,-0.703,-0.7041,-0.7055,-0.7071,-0.7081,-0.7097,-0.712,-0.7124,-0.7129,-0.7131,-0.7132,-0.7135,-0.7148,-0.7151,-0.7121,-0.7121,-0.7121,0,0,-0.6938,-0.695,-0.6958,-0.698,-0.699,-0.7006,-0.7002,-0.7018,-0.703,-0.7033,-0.7053,-0.7062,-0.7078,-0.71,-0.7111,-0.7108,-0.7144,-0.7134,-0.7135,-0.7137,-0.715,-0.7153,-0.7155,-0.7122,-0.7122,-0.7122,0,0,-0.6955,-0.6965,-0.6981,-0.6992,-0.7007,-0.7015,-0.7019,-0.7035,-0.7041,-0.7062,-0.7065,-0.7079,-0.7106,-0.7117,-0.7127,-0.7149,-0.7151,-0.7153,-0.7162,-0.7175,-0.7178,-0.718,-0.7188,-0.7191,-0.7155,-0.7156,-0.7156,0,-0.696,-0.6982,-0.6989,-0.7005,-0.7015,-0.7018,-0.7035,-0.7045,-0.7065,-0.7072,-0.7069,-0.7103,-0.7114,-0.714,-0.7145,-0.7152,-0.7157,-0.7152,-0.7177,-0.7179,-0.7181,-0.7189,-0.7192,-0.7156,-0.7156,-0.7156,-0.7156,0,-0.6988,-0.7003,-0.7014,-0.7034,-0.7045,-0.7061,-0.7071,-0.7081,-0.7085,-0.7093,-0.7114,-0.7128,-0.7146,-0.7152,-0.7156,-0.7178,-0.7176,-0.7175,-0.7169,-0.7184,-0.7192,-0.7195,-0.7156,-0.7156,-0.7156,-0.7156,0,0,-0.7006,-0.7029,-0.7033,-0.7042,-0.7059,-0.7072,-0.7089,-0.7106,-0.7116,-0.7129,-0.7144,-0.7167,-0.7166,-0.7177,-0.7182,-0.7193,-0.721,-0.719,-0.7191,-0.7194,-0.7237,-0.7238,-0.7242,-0.7211,-0.7212,-0.7213,-0.7236,0,-0.7026,-0.7055,-0.7062,-0.7088,-0.7103,-0.7106,-0.7121,-0.7134,-0.7142,-0.7156,-0.7165,-0.7181,-0.7178,-0.7184,-0.7196,-0.7206,-0.7219,-0.7204,-0.7226,-0.7227,-0.7223,-0.7246,-0.7248,-0.7269,-0.7239,-0.7239,-0.724,0,-0.7053,-0.7067,-0.7094,-0.711,-0.7117,-0.713,-0.7147,-0.7161,-0.7176,-0.7181,-0.7193,-0.7197,-0.7215,-0.7208,-0.7233,-0.7223,-0.7232,-0.7239,-0.724,-0.7243,-0.7235,-0.725,-0.7276,-0.7279,-0.7245,-0.7244,-0.7244,0,-0.7064,-0.709,-0.711,-0.7117,-0.7137,-0.7146,-0.7155,-0.7169,-0.7179,-0.7194,-0.7202,-0.7219,-0.7228,-0.7241,-0.725,-0.7244,-0.7276,-0.7269,-0.7281,-0.7281,-0.7288,-0.7287,-0.7316,-0.7293,-0.7293,-0.7293,-0.7293,0,-0.7086,-0.7103,-0.7115,-0.7128,-0.7146,-0.7154,-0.7173,-0.7182,-0.7195,-0.7209,-0.7213,-0.7227,-0.7237,-0.7252,-0.7259,-0.728,-0.7284,-0.7289,-0.7291,-0.7289,-0.7289,-0.7296,-0.7295,-0.7293,-0.7293,-0.7293,-0.7293,0,-0.7102,-0.7111,-0.7133,-0.715,-0.7154,-0.7167,-0.7182,-0.7194,-0.7202,-0.7221,-0.7225,-0.7238,-0.7256,-0.7266,-0.7289,-0.7294,-0.7317,-0.7318,-0.7312,-0.7313,-0.7324,-0.7324,-0.7359,-0.7365,-0.7337,-0.7337,-0.7338,0,-0.7116,-0.7128,-0.7146,-0.7156,-0.7165,-0.7181,-0.7191,-0.72,-0.7211,-0.7229,-0.7239,-0.7257,-0.7273,-0.7302,-0.7313,-0.7331,-0.7332,-0.7344,-0.7335,-0.7333,-0.7334,-0.7333,-0.7335,-0.7345,-0.7346,-0.7346,-0.7346,0,-0.7139,-0.7143,-0.7158,-0.7175,-0.7187,-0.7201,-0.7214,-0.7222,-0.7233,-0.7245,-0.7264,-0.7275,-0.7299,-0.7317,-0.7336,-0.7345,-0.7348,-0.7349,-0.7352,-0.7351,-0.7347,-0.735,-0.7317,-0.7348,-0.7348,-0.7348,-0.7347,-0.7347,-0.7155,-0.7166,-0.7181,-0.7198,-0.7209,-0.7222,-0.7234,-0.7244,-0.7259,-0.7279,-0.7283,-0.7302,-0.7318,-0.7343,-0.7353,-0.7369,-0.7367,-0.7372,-0.7374,-0.7375,-0.7376,-0.7344,-0.7372,-0.7372,-0.7372,-0.7372,-0.7372,0,-0.7179,-0.7188,-0.7204,-0.7222,-0.7236,-0.7236,-0.7252,-0.7263,-0.728,-0.7294,-0.7309,-0.733,-0.7348,-0.7361,-0.738,-0.739,-0.7392,-0.7395,-0.7395,-0.7397,-0.7376,-0.7371,-0.7393,-0.7393,-0.7393,-0.7393,-0.7393,-0.7393,-0.7193,-0.7213,-0.7219,-0.7245,-0.7255,-0.7274,-0.7282,-0.7294,-0.7306,-0.7329,-0.7344,-0.7353,-0.7366,-0.7386,-0.7403,-0.7406,-0.7413,-0.7416,-0.742,-0.74,-0.7398,-0.7396,-0.7392,-0.7417,-0.7417,-0.7439,-0.7439,-0.744]},{"header":{"parameterUnit":"m.s-1","parameterCategory":1,"la1":30.2991,"la2":30.254,"lo1":-89.0895,"lo2":-89.0444,"dy":0.0017,"dx":0.0017,"nx":28,"ny":28,"refTime":"2025-01-28T09:00:00:Z","depth":0,"parameterNumber":3,"parameterNumberName":"V-component_of_WINDS"},"data":[0,0,0,0,0,0,0,0,0,0,0,0,0,0,0,0,0,0,0,0,0,0,0,0,0,0,0,0,0,0,0,0,0,0,0,0,0,0,0,0,0,0,0,0,0,0,0,0,0,0,0,0,0,0,0,0,0,0,-3.9525,-3.9526,0,-3.9573,-3.9573,-3.9574,-3.9523,-3.9521,-3.9519,-3.9517,-3.9559,-3.9562,-3.9565,0,0,0,0,0,0,0,0,0,0,0,0,0,-3.9387,-3.939,-3.9525,-3.9526,-3.9527,-3.9572,-3.9573,-3.9574,-3.9523,-3.952,-3.9518,-3.9516,-3.9558,-3.9562,-3.9565,0,0,0,0,0,0,0,0,0,0,0,0,0,-3.9442,-3.9391,-3.9525,-3.9507,-3.9506,-3.9572,-3.9573,-3.9574,-3.9523,-3.952,-3.9518,-3.9515,-3.9557,-3.9561,-3.9566,-3.9651,0,0,-3.9579,-3.9581,0,0,0,0,0,0,0,0,-3.9439,-3.9447,-3.9509,-3.9508,-3.9507,-3.9539,-3.954,-3.9599,-3.9524,-3.9516,-3.9517,-3.9513,-3.9554,-3.9559,-3.9574,-3.9653,-3.9655,-3.9579,-3.9582,-3.9584,-3.9585,0,0,0,0,0,0,0,-3.9435,-3.9445,-3.9544,-3.951,-3.9509,-3.9495,-3.9499,-3.9551,-3.9551,-3.9517,-3.9513,-3.952,-3.9553,-3.957,-3.9574,-3.9655,-3.9579,-3.9583,-3.9586,-3.9588,-3.9808,-3.9811,0,0,0,0,0,0,-3.9434,-3.9442,-3.9542,-3.9545,-3.9465,-3.95,-3.9505,-3.9531,-3.955,-3.955,-3.9522,-3.9517,-3.9564,-3.9569,-3.9576,-3.9678,-3.9584,-3.9588,-3.9591,-3.9805,-3.9809,-3.9813,0,0,0,0,0,0,-3.9431,-3.9444,-3.954,-3.9493,-3.9504,-3.9505,-3.9535,-3.9534,-3.955,-3.9554,-3.9554,-3.954,-3.9561,-3.9569,-3.9633,-3.9679,-3.959,-3.9594,-3.9801,-3.9806,-3.9811,-3.9883,0,0,0,0,0,0,-3.9428,-3.9443,-3.9476,-3.9494,-3.9507,-3.9599,-3.9538,-3.9537,-3.9559,-3.9553,-3.957,-3.957,-3.956,-3.9627,-3.9638,-3.9683,-3.9597,-3.9797,-3.9804,-3.9809,-3.9877,-3.989,-3.9901,0,0,0,0,0,-3.9423,-3.9493,-3.9478,-3.949,-3.9549,-3.9602,-3.9609,-3.9597,-3.9563,-3.9596,-3.9599,-3.957,-3.9672,-3.9634,-3.9646,-3.9693,-3.9794,-3.9802,-3.9809,-3.9871,-3.9887,-3.9901,0,0,0,0,0,0,-3.9477,-3.9495,-3.9479,-3.9557,-3.9579,-3.9593,-3.9634,-3.9614,-3.9644,-3.9637,-3.9619,-3.9623,-3.9692,-3.9698,-3.9656,-3.9778,-3.9727,-3.9737,-3.9771,-3.9786,-3.9798,-3.9795,-3.9601,0,0,0,0,0,-3.9499,-3.9542,-3.9554,-3.9622,-3.9634,-3.9633,-3.9655,-3.9644,-3.9665,-3.9673,-3.9681,-3.9701,-3.9738,-3.9762,-3.9796,-3.9877,-3.9881,-3.9916,-3.9928,-3.9938,-3.9947,-3.9992,-4.0008,-3.9836,-3.9836,-3.9836,0,0,-3.9543,-3.9558,-3.9586,-3.9633,-3.9649,-3.9693,-3.964,-3.9688,-3.9721,-3.968,-3.9742,-3.9748,-3.9769,-3.9843,-3.9876,-3.9851,-3.9995,-3.9947,-3.9955,-3.9959,-4.0001,-4.0018,-4.0032,-3.9841,-3.9841,-3.984,0,0,-3.9646,-3.9662,-3.9721,-3.9739,-3.9764,-3.9763,-3.9778,-3.9796,-3.98,-3.9862,-3.9833,-3.987,-3.9933,-3.9951,-3.9967,-4.008,-4.0055,-4.0092,-4.0156,-4.02,-4.0214,-4.0225,-4.0267,-4.0282,-4.01,-4.0101,-4.0101,0,-3.9697,-3.9764,-3.9753,-3.9805,-3.9827,-3.9795,-3.9855,-3.9872,-3.9906,-3.9922,-3.9893,-3.9974,-3.9986,-4.0064,-4.0092,-4.0106,-4.0122,-4.009,-4.0213,-4.0225,-4.0236,-4.0275,-4.0291,-4.0105,-4.0104,-4.0104,-4.0104,0,-3.9827,-3.9874,-3.9918,-3.9956,-3.9983,-4.0038,-4.0035,-4.0063,-4.0051,-4.0052,-4.0117,-4.013,-4.0168,-4.0185,-4.0172,-4.0262,-4.0246,-4.0216,-4.0165,-4.0257,-4.0293,-4.0308,-4.0111,-4.011,-4.0108,-4.0107,0,0,-3.9964,-3.9997,-4.0014,-4.0032,-4.0059,-4.0094,-4.0148,-4.0187,-4.0213,-4.0237,-4.0283,-4.0338,-4.0312,-4.0331,-4.0319,-4.0358,-4.0449,-4.0323,-4.0324,-4.0347,-4.0551,-4.0574,-4.0592,-4.0433,-4.0436,-4.0438,-4.055,0,-4.0069,-4.0166,-4.0158,-4.0249,-4.0293,-4.0264,-4.0312,-4.0333,-4.0336,-4.0373,-4.0376,-4.0417,-4.0377,-4.0389,-4.0426,-4.043,-4.049,-4.0422,-4.0474,-4.0476,-4.0471,-4.0611,-4.0635,-4.074,-4.0564,-4.0566,-4.0568,0,-4.0204,-4.0238,-4.0334,-4.0357,-4.0375,-4.0418,-4.0455,-4.049,-4.0514,-4.0514,-4.0537,-4.052,-4.0574,-4.0523,-4.0597,-4.0551,-4.0571,-4.0577,-4.0581,-4.0585,-4.0528,-4.062,-4.0773,-4.0789,-4.059,-4.0588,-4.0587,0,-4.0296,-4.0365,-4.0433,-4.0448,-4.0477,-4.0508,-4.0521,-4.0542,-4.0566,-4.0597,-4.0613,-4.0649,-4.0669,-4.0697,-4.069,-4.0653,-4.0766,-4.0713,-4.0767,-4.0768,-4.0793,-4.0791,-4.0952,-4.0805,-4.0805,-4.0804,-4.0804,0,-4.0415,-4.0475,-4.0475,-4.0516,-4.0583,-4.0574,-4.064,-4.0648,-4.0668,-4.071,-4.0686,-4.0725,-4.0713,-4.0752,-4.0746,-4.081,-4.0818,-4.0819,-4.0817,-4.0822,-4.0822,-4.0836,-4.0828,-4.0808,-4.0808,-4.0807,-4.0806,0,-4.0529,-4.0531,-4.0603,-4.0626,-4.0633,-4.0681,-4.0699,-4.0738,-4.074,-4.0794,-4.0806,-4.0809,-4.0854,-4.085,-4.0898,-4.0895,-4.0974,-4.0962,-4.0967,-4.0965,-4.1019,-4.1015,-4.1195,-4.1218,-4.1055,-4.1057,-4.1058,0,-4.0605,-4.0651,-4.068,-4.0708,-4.0724,-4.0768,-4.0795,-4.0787,-4.0815,-4.0848,-4.0882,-4.0926,-4.096,-4.1032,-4.1038,-4.1076,-4.1065,-4.1126,-4.1071,-4.1075,-4.1068,-4.1066,-4.1071,-4.1137,-4.1139,-4.114,-4.1141,0,-4.0739,-4.0739,-4.0779,-4.0821,-4.0854,-4.0886,-4.0914,-4.0938,-4.0934,-4.0966,-4.1013,-4.104,-4.1092,-4.1136,-4.1172,-4.1183,-4.1162,-4.1159,-4.1174,-4.118,-4.1181,-4.1182,-4.0998,-4.1155,-4.1154,-4.1153,-4.1152,-4.1151,-4.0837,-4.0878,-4.0906,-4.0952,-4.0974,-4.1002,-4.1041,-4.105,-4.109,-4.1134,-4.1126,-4.118,-4.1203,-4.1251,-4.1266,-4.1307,-4.1284,-4.1305,-4.1311,-4.1316,-4.1324,-4.1174,-4.1313,-4.1312,-4.1312,-4.1312,-4.1311,0,-4.0972,-4.0989,-4.1032,-4.1075,-4.1112,-4.1092,-4.1123,-4.1154,-4.1202,-4.1228,-4.1263,-4.1318,-4.136,-4.1371,-4.1411,-4.1442,-4.1433,-4.1453,-4.1451,-4.1454,-4.134,-4.1324,-4.1459,-4.1459,-4.1459,-4.1459,-4.1459,-4.1459,-4.1046,-4.1116,-4.1119,-4.1199,-4.1215,-4.1269,-4.1289,-4.1315,-4.1336,-4.1399,-4.1436,-4.1443,-4.1463,-4.1505,-4.1543,-4.1545,-4.1561,-4.1585,-4.1583,-4.1477,-4.1462,-4.1448,-4.1433,-4.1589,-4.1589,-4.1694,-4.1695,-4.1696]}]]